Regional Weather Roundup
Issued by NWS

Home | Current Version | Previous Version | Graphics & Text | Print | Product List | Glossary On
Versions: 1 2 3 4 5 6 7 8 9 10 11 12 13 14 15 16 17 18 19 20 21 22 23 24 25 26 27 28 29 30 31 32 33 34 35 36 37 38 39 40 41 42 43 44 45 46 47 48 49 50
699
ASUS44 KLIX 221805
RWRLA
LOUISIANA WEATHER ROUNDUP
NATIONAL WEATHER SERVICE NEW ORLEANS LA
100 PM CDT TUE APR 22 2014

NOTE: "FAIR" INDICATES FEW OR NO CLOUDS BELOW 12,000 FEET WITH NO
      SIGNIFICANT WEATHER AND/OR OBSTRUCTIONS TO VISIBILITY.
      SKY/WX - SKY CONDITION AND SIGNIFICANT WEATHER.
      TMP - AIR TEMPERATURE.    DP   - DEWPOINT TEMPERATURE.
      RH  - RELATIVE HUMIDITY.  PRES - PRESSURE.
      HX  - HEAT INDEX.         WCI  - WIND CHILL INDEX.

*  THESE STATIONS ARE NOT NWS OR FAA STATIONS AND ARE NOT UNDER
   NWS QUALITY CONTROL.

LAZ040-048-061>063-065-066-069-221900-
SOUTHEAST LOUISIANA

CITY           SKY/WX    TMP DP  RH WIND       PRES   REMARKS
N.O. AUDUBON     N/A     72  64  75 MISG        N/A
6HR MIN TEMP:  64; 6HR MAX TEMP:  76;

N.O. INTL ARPT CLOUDY    74  66  76 W9        29.95F
6HR MIN TEMP:  62; 6HR MAX TEMP:  74;

N.O. LAKEFRONT CLOUDY    71  66  84 W9        29.96F
6HR MIN TEMP:  66; 6HR MAX TEMP:  72;

N.O. DOWNTOWN* CLOUDY    72  61  68 SW3       29.96F
6HR MIN TEMP:  64; 6HR MAX TEMP:  73;

SLIDELL        CLOUDY    70  64  81 NW5       29.95F HAZE
6HR MIN TEMP:  57; 6HR MAX TEMP:  72;

BATON ROUGE    CLOUDY    75  63  66 NW7       29.95F
6HR MIN TEMP:  65; 6HR MAX TEMP:  77; 6HR PCP: TRACE;

BOOTHVILLE     FAIR      74  63  68 W13       29.97F
6HR MIN TEMP:  65; 6HR MAX TEMP:  74;

BELLE CHASSE   CLOUDY    75  63  64 W10G16    29.95F
BOGALUSA*        N/A     75  64  68 W9G16     29.96S
6HR MIN TEMP:  63; 6HR MAX TEMP:  76;

GALLIANO*      CLOUDY    78  64  63 W9        29.96F
6HR MIN TEMP:  62; 6HR MAX TEMP:  78;

NEW ROADS*     CLOUDY    74  62  65 NW7       29.96F
6HR MIN TEMP:  63; 6HR MAX TEMP:  75;

GONZALES*        N/A     69  67  93 CALM      29.96F
6HR MIN TEMP:  64; 6HR MAX TEMP:  72;

HAMMOND*       PTSUNNY   75  63  64 NW9       29.96F
HOUMA*         PTSUNNY   75  63  64 SW12      29.96F
PORT FOURCHON* CLOUDY    73  64  73 SW14      29.99F

$$

LAZ041-044-053-054-221900-
SOUTHWEST LOUISIANA

CITY           SKY/WX    TMP DP  RH WIND       PRES   REMARKS
LAKE CHARLES   PTSUNNY   81  64  56 MISG      29.97F
6HR MIN TEMP:  69; 6HR MAX TEMP:  81;

LAFAYETTE      PTSUNNY   77  63  61 NW12      29.96F
6HR MIN TEMP:  67; 6HR MAX TEMP:  78;

PATTERSON      CLOUDY    73  64  73 W12       30.00S
6HR MIN TEMP:  61; 6HR MAX TEMP:  75;

SALT POINT       N/A     73  67  81 VRB3      29.97F
6HR MIN TEMP:  71; 6HR MAX TEMP:  75;

NEW IBERIA     CLOUDY    75  66  73 NW10      29.97F
6HR MIN TEMP:  66; 6HR MAX TEMP:  76;

CHENAULT AIRPK NOT AVBL

$$

LAZ027-028-221900-
CENTRAL LOUISIANA

CITY           SKY/WX    TMP DP  RH WIND       PRES   REMARKS
FORT POLK      FAIR      75  59  57 NW7G16    29.98F
6HR MIN TEMP:  67; 6HR MAX TEMP:  75;

ALEXANDRIA INT FAIR      75  61  61 VRB7      29.96F
6HR MIN TEMP:  66; 6HR MAX TEMP:  76;

ALEXANDRIA     PTSUNNY   75  60  59 NW6       29.97F
6HR MIN TEMP:  66; 6HR MAX TEMP:  77;


$$

LAZ001-002-221900-
NORTHWEST LOUISIANA

CITY           SKY/WX    TMP DP  RH WIND       PRES   REMARKS
SHREVEPORT     FAIR      78  61  55 N6        30.00F
6HR MIN TEMP:  63; 6HR MAX TEMP:  78;

BARKSDALE AFB  PTSUNNY   75  61  60 VRB7      29.99F
6HR MIN TEMP:  63; 6HR MAX TEMP:  76;

DTN SHREVEPORT FAIR      76  63  64 N5        30.00F
6HR MIN TEMP:  62; 6HR MAX TEMP:  76;


$$

LAZ014-016-221900-
NORTHEAST LOUISIANA

CITY           SKY/WX    TMP DP  RH WIND       PRES   REMARKS
MONROE         FAIR      76  62  62 NW12      29.98F
6HR MIN TEMP:  65; 6HR MAX TEMP:  76;

TALLULAH       FAIR      76  62  62 N8G17     29.95F
6HR MIN TEMP:  66; 6HR MAX TEMP:  77; 6HR PCP: TRACE;


$$




USA.gov is the U.S. government's official web portal to all federal, state and local government web resources and services.